Year,Month,Day,Hour,Minute,Value (Times are PST for temperature in C)
2016,03,19,00,00,8.20
2016,03,19,00,01,8.20
2016,03,19,00,02,8.20
2016,03,19,00,03,8.20
2016,03,19,00,04,8.20
2016,03,19,00,05,8.20
2016,03,19,00,06,8.20
2016,03,19,00,07,8.20
2016,03,19,00,08,8.20
2016,03,19,00,09,8.20
2016,03,19,00,10,8.20
2016,03,19,00,11,8.20
2016,03,19,00,12,8.20
2016,03,19,02,11,7.60
2016,03,19,02,12,7.70
2016,03,19,02,13,7.70
2016,03,19,02,14,7.80
2016,03,19,02,15,7.80
2016,03,19,02,16,7.70
2016,03,19,02,17,7.70
2016,03,19,02,18,7.70
2016,03,19,02,19,7.70
2016,03,19,02,20,7.70
2016,03,19,02,21,7.70
2016,03,19,02,22,7.70
2016,03,19,02,23,7.70
2016,03,19,02,24,7.70
2016,03,19,02,25,7.70
2016,03,19,02,26,7.70
2016,03,19,02,27,7.70
2016,03,19,02,28,7.70
2016,03,19,02,29,7.70
2016,03,19,02,30,7.70
2016,03,19,02,31,7.70
2016,03,19,02,32,7.60
2016,03,19,02,33,7.60
2016,03,19,02,34,7.60
2016,03,19,02,35,7.60
2016,03,19,02,36,7.60
2016,03,19,02,37,7.60
2016,03,19,02,38,7.60
2016,03,19,02,39,7.60
2016,03,19,02,40,7.60
2016,03,19,02,41,7.50
2016,03,19,02,42,7.40
2016,03,19,02,43,7.30
2016,03,19,02,44,7.20
2016,03,19,02,45,7.10
2016,03,19,02,46,7.10
2016,03,19,02,47,7.00
2016,03,19,02,48,7.00
2016,03,19,02,49,7.00
2016,03,19,02,50,7.10
2016,03,19,02,51,7.10
2016,03,19,02,52,7.10
2016,03,19,02,53,7.00
2016,03,19,02,54,7.00
2016,03,19,02,55,6.90
2016,03,19,02,56,6.90
2016,03,19,02,57,6.90
2016,03,19,02,58,6.90
2016,03,19,02,59,7.00
2016,03,19,03,00,7.10
2016,03,19,03,01,7.10
2016,03,19,03,02,7.20
2016,03,19,03,03,7.20
2016,03,19,03,04,7.30
2016,03,19,03,05,7.30
2016,03,19,03,06,7.40
2016,03,19,03,07,7.50
2016,03,19,03,08,7.60
2016,03,19,03,09,7.70
2016,03,19,03,10,7.70
2016,03,19,03,11,7.80
2016,03,19,03,12,7.80
2016,03,19,03,13,7.80
2016,03,19,03,14,7.90
2016,03,19,03,15,7.90
2016,03,19,03,16,7.90
2016,03,19,03,17,7.90
2016,03,19,03,18,7.90
2016,03,19,03,19,7.90
2016,03,19,03,20,7.90
2016,03,19,03,21,8.00
2016,03,19,03,22,8.00
2016,03,19,03,23,8.00
2016,03,19,03,24,8.00
2016,03,19,03,25,8.10
2016,03,19,03,26,8.10
2016,03,19,03,27,8.10
2016,03,19,03,28,8.10
2016,03,19,03,29,8.10
2016,03,19,03,30,8.10
2016,03,19,03,31,8.10
2016,03,19,03,32,8.10
2016,03,19,03,33,8.10
2016,03,19,03,34,8.10
2016,03,19,03,35,8.10
2016,03,19,03,36,8.10
2016,03,19,03,37,8.10
2016,03,19,03,38,8.20
2016,03,19,03,39,8.20
2016,03,19,03,40,8.20
2016,03,19,03,41,8.20
2016,03,19,03,42,8.20
2016,03,19,03,43,8.20
2016,03,19,03,44,8.30
2016,03,19,03,45,8.30
2016,03,19,03,46,8.30
2016,03,19,03,47,8.30
2016,03,19,03,48,8.40
2016,03,19,03,49,8.40
2016,03,19,03,50,8.40
2016,03,19,03,51,8.40
2016,03,19,03,52,8.50
2016,03,19,03,53,8.50
2016,03,19,03,54,8.60
2016,03,19,03,55,8.60
2016,03,19,03,56,8.70
2016,03,19,03,57,8.70
2016,03,19,03,58,8.70
2016,03,19,03,59,8.70
2016,03,19,04,00,8.70
2016,03,19,04,01,8.70
2016,03,19,04,02,8.70
2016,03,19,04,03,8.70
2016,03,19,04,04,8.70
2016,03,19,04,05,8.70
2016,03,19,04,06,8.70
2016,03,19,04,07,8.70
2016,03,19,04,08,8.70
2016,03,19,04,09,8.70
2016,03,19,04,10,8.70
2016,03,19,04,11,8.70
2016,03,19,04,12,8.60
2016,03,19,04,13,8.60
2016,03,19,04,14,8.60
2016,03,19,04,15,8.60
2016,03,19,04,16,8.60
2016,03,19,04,17,8.50
2016,03,19,04,18,8.50
2016,03,19,04,19,8.50
2016,03,19,04,20,8.50
2016,03,19,04,21,8.50
2016,03,19,04,22,8.40
2016,03,19,04,23,8.40
2016,03,19,04,24,8.40
2016,03,19,04,25,8.40
2016,03,19,04,26,8.40
2016,03,19,04,27,8.40
2016,03,19,04,28,8.40
2016,03,19,04,29,8.40
2016,03,19,04,30,8.40
2016,03,19,04,31,8.30
2016,03,19,04,32,8.30
2016,03,19,04,33,8.30
2016,03,19,04,34,8.30
2016,03,19,04,35,8.30
2016,03,19,04,36,8.30
2016,03,19,04,37,8.20
2016,03,19,04,38,8.20
2016,03,19,04,39,8.20
2016,03,19,04,40,8.20
2016,03,19,04,41,8.20
2016,03,19,04,42,8.20
2016,03,19,04,43,8.20
2016,03,19,04,44,8.10
2016,03,19,04,45,8.10
2016,03,19,04,46,8.10
2016,03,19,04,47,8.10
2016,03,19,04,48,8.10
2016,03,19,04,49,8.00
2016,03,19,04,50,8.00
2016,03,19,04,51,7.90
2016,03,19,04,52,7.90
2016,03,19,04,53,7.90
2016,03,19,04,54,7.80
2016,03,19,04,55,7.80
2016,03,19,04,56,7.80
2016,03,19,04,57,7.80
2016,03,19,04,58,7.80
2016,03,19,04,59,7.80
2016,03,19,05,00,7.70
2016,03,19,05,01,7.70
2016,03,19,05,02,7.70
2016,03,19,05,03,7.70
2016,03,19,05,04,7.70
2016,03,19,05,05,7.70
2016,03,19,05,06,7.70
2016,03,19,05,07,7.70
2016,03,19,05,08,7.70
2016,03,19,05,09,7.70
2016,03,19,05,10,7.70
2016,03,19,05,11,7.70
2016,03,19,05,12,7.70
2016,03,19,05,13,7.60
2016,03,19,05,14,7.50
2016,03,19,05,15,7.50
2016,03,19,05,16,7.40
2016,03,19,05,17,7.40
2016,03,19,05,18,7.40
2016,03,19,05,19,7.40
2016,03,19,05,20,7.40
2016,03,19,05,21,7.40
2016,03,19,05,22,7.40
2016,03,19,05,23,7.40
2016,03,19,05,24,7.40
2016,03,19,05,25,7.50
2016,03,19,05,26,7.50
2016,03,19,05,27,7.60
2016,03,19,05,28,7.60
2016,03,19,05,29,7.70
2016,03,19,05,30,7.70
2016,03,19,05,31,7.70
2016,03,19,05,32,7.70
2016,03,19,05,33,7.70
2016,03,19,05,34,7.70
2016,03,19,05,35,7.70
2016,03,19,05,36,7.70
2016,03,19,05,37,7.70
2016,03,19,05,38,7.70
2016,03,19,05,39,7.70
2016,03,19,05,40,7.70
2016,03,19,05,41,7.70
2016,03,19,05,42,7.60
2016,03,19,05,43,7.50
2016,03,19,05,44,7.50
2016,03,19,05,45,7.40
2016,03,19,05,46,7.30
2016,03,19,05,47,7.30
2016,03,19,05,48,7.30
2016,03,19,05,49,7.30
2016,03,19,05,50,7.20
2016,03,19,05,51,7.20
2016,03,19,05,52,7.20
2016,03,19,05,53,7.20
2016,03,19,05,54,7.30
2016,03,19,05,55,7.30
2016,03,19,05,56,7.30
2016,03,19,05,57,7.30
2016,03,19,05,58,7.30
2016,03,19,05,59,7.30
2016,03,19,06,00,7.40
2016,03,19,06,01,7.40
2016,03,19,06,02,7.40
2016,03,19,06,03,7.50
2016,03,19,06,04,7.50
2016,03,19,06,05,7.50
2016,03,19,06,06,7.60
2016,03,19,06,07,7.60
2016,03,19,06,08,7.60
2016,03,19,06,09,7.60
2016,03,19,06,10,7.60
2016,03,19,06,11,7.60
2016,03,19,06,12,7.70
2016,03,19,06,13,7.70
2016,03,19,06,14,7.70
2016,03,19,06,15,7.70
2016,03,19,06,16,7.70
2016,03,19,06,17,7.70
2016,03,19,06,18,7.70
2016,03,19,06,19,7.70
2016,03,19,06,20,7.70
2016,03,19,06,21,7.70
2016,03,19,06,22,7.70
2016,03,19,06,23,7.60
2016,03,19,06,24,7.60
2016,03,19,06,25,7.50
2016,03,19,06,26,7.50
2016,03,19,06,27,7.50
2016,03,19,06,28,7.50
2016,03,19,06,29,7.50
2016,03,19,06,30,7.50
2016,03,19,06,31,7.50
2016,03,19,06,32,7.60
2016,03,19,06,33,7.60
2016,03,19,06,34,7.60
2016,03,19,06,35,7.60
2016,03,19,06,36,7.60
2016,03,19,06,37,7.60
2016,03,19,06,38,7.60
2016,03,19,06,39,7.60
2016,03,19,06,40,7.60
2016,03,19,06,41,7.60
2016,03,19,06,42,7.60
2016,03,19,06,43,7.60
2016,03,19,06,44,7.50
2016,03,19,06,45,7.50
2016,03,19,06,46,7.50
2016,03,19,06,47,7.50
2016,03,19,06,48,7.50
2016,03,19,06,49,7.50
2016,03,19,06,50,7.60
2016,03,19,06,51,7.60
2016,03,19,06,52,7.50
2016,03,19,06,53,7.50
2016,03,19,06,54,7.50
2016,03,19,06,55,7.50
2016,03,19,06,56,7.40
2016,03,19,06,57,7.40
2016,03,19,06,58,7.30
2016,03,19,06,59,7.30
2016,03,19,07,00,7.30
2016,03,19,07,01,7.30
2016,03,19,07,02,7.30
2016,03,19,07,03,7.20
2016,03,19,07,04,7.20
2016,03,19,07,05,7.20
2016,03,19,07,06,7.20
2016,03,19,07,07,7.20
2016,03,19,07,08,7.20
2016,03,19,07,09,7.10
2016,03,19,07,10,7.10
2016,03,19,07,11,7.10
2016,03,19,07,12,7.10
2016,03,19,07,13,7.10
2016,03,19,07,14,7.10
2016,03,19,07,15,7.20
2016,03,19,07,16,7.30
2016,03,19,07,17,7.30
2016,03,19,07,18,7.40
2016,03,19,07,19,7.40
2016,03,19,07,20,7.50
2016,03,19,07,21,7.50
2016,03,19,07,22,7.60
2016,03,19,07,23,7.60
2016,03,19,07,24,7.60
2016,03,19,07,25,7.60
2016,03,19,07,26,7.60
2016,03,19,07,27,7.60
2016,03,19,07,28,7.70
2016,03,19,07,29,7.60
2016,03,19,07,30,7.60
2016,03,19,07,31,7.60
2016,03,19,07,32,7.60
2016,03,19,07,33,7.60
2016,03,19,07,34,7.70
2016,03,19,07,35,7.70
2016,03,19,07,36,7.80
2016,03,19,07,37,7.80
2016,03,19,07,38,7.80
2016,03,19,07,39,7.80
2016,03,19,07,40,7.80
2016,03,19,07,41,7.80
2016,03,19,07,42,7.80
2016,03,19,07,43,7.80
2016,03,19,07,44,7.80
2016,03,19,07,45,7.80
2016,03,19,07,46,7.80
2016,03,19,07,47,7.80
2016,03,19,07,48,7.80
2016,03,19,07,49,7.80
2016,03,19,07,50,7.80
2016,03,19,07,51,7.80
2016,03,19,07,52,7.80
2016,03,19,07,53,7.70
2016,03,19,07,54,7.70
2016,03,19,07,55,7.70
2016,03,19,07,56,7.60
2016,03,19,07,57,7.60
2016,03,19,07,58,7.50
2016,03,19,07,59,7.50
2016,03,19,08,00,7.40
2016,03,19,08,01,7.40
2016,03,19,08,02,7.40
2016,03,19,08,03,7.40
2016,03,19,08,04,7.30
2016,03,19,08,05,7.30
2016,03,19,08,06,7.30
2016,03,19,08,07,7.30
2016,03,19,08,08,7.30
2016,03,19,08,09,7.30
2016,03,19,08,10,7.30
2016,03,19,08,11,7.30
2016,03,19,08,12,7.30
2016,03,19,08,13,7.30
2016,03,19,08,14,7.30
2016,03,19,08,15,7.30
2016,03,19,08,16,7.30
2016,03,19,08,17,7.30
2016,03,19,08,18,7.30
2016,03,19,08,19,7.30
2016,03,19,08,20,7.30
2016,03,19,08,21,7.30
2016,03,19,08,22,7.30
2016,03,19,08,23,7.30
2016,03,19,08,24,7.30
2016,03,19,08,25,7.40
2016,03,19,08,26,7.40
2016,03,19,08,27,7.40
2016,03,19,08,28,7.40
2016,03,19,08,29,7.40
2016,03,19,08,30,7.40
2016,03,19,08,31,7.40
2016,03,19,08,32,7.50
2016,03,19,08,33,7.50
2016,03,19,08,34,7.60
2016,03,19,08,35,7.60
2016,03,19,08,36,7.60
2016,03,19,08,37,7.70
2016,03,19,08,38,7.70
2016,03,19,08,39,7.70
2016,03,19,08,40,7.70
2016,03,19,08,41,7.80
2016,03,19,08,42,7.80
2016,03,19,08,43,7.80
2016,03,19,08,44,7.80
2016,03,19,08,45,7.80
2016,03,19,08,46,7.80
2016,03,19,08,47,7.80
2016,03,19,08,48,7.90
2016,03,19,08,49,7.90
2016,03,19,08,50,7.90
2016,03,19,08,51,7.90
2016,03,19,08,52,7.90
2016,03,19,08,53,7.90
2016,03,19,08,54,7.90
2016,03,19,08,55,7.90
2016,03,19,08,56,7.90
2016,03,19,08,57,8.00
2016,03,19,08,58,8.00
2016,03,19,08,59,8.00
2016,03,19,09,00,8.00
2016,03,19,09,01,8.00
2016,03,19,09,02,8.10
2016,03,19,09,03,8.10
2016,03,19,09,04,8.10
2016,03,19,09,05,8.10
2016,03,19,09,06,8.10
2016,03,19,09,07,8.10
2016,03,19,09,08,8.10
2016,03,19,09,09,8.10
2016,03,19,09,10,8.10
2016,03,19,09,11,8.10
2016,03,19,09,12,8.10
2016,03,19,09,13,8.10
2016,03,19,09,14,8.10
2016,03,19,09,15,8.10
2016,03,19,09,16,8.10
2016,03,19,09,17,8.10
2016,03,19,09,18,8.10
2016,03,19,09,19,8.10
2016,03,19,09,20,8.10
2016,03,19,09,21,8.20
2016,03,19,09,22,8.20
2016,03,19,09,23,8.30
2016,03,19,09,24,8.30
2016,03,19,09,25,8.40
2016,03,19,09,26,8.50
2016,03,19,09,27,8.60
2016,03,19,09,28,8.60
2016,03,19,09,29,8.70
2016,03,19,09,30,8.70
2016,03,19,09,31,8.70
2016,03,19,09,32,8.70
2016,03,19,09,33,8.70
2016,03,19,09,34,8.70
2016,03,19,09,35,8.80
2016,03,19,09,36,8.80
2016,03,19,09,37,8.80
2016,03,19,09,38,8.80
2016,03,19,09,39,8.90
2016,03,19,09,40,8.90
2016,03,19,09,41,9.00
2016,03,19,09,42,9.00
2016,03,19,09,43,9.10
2016,03,19,09,44,9.20
2016,03,19,09,45,9.30
2016,03,19,09,46,9.30
2016,03,19,09,47,9.40
2016,03,19,09,48,9.40
2016,03,19,09,49,9.50
2016,03,19,09,50,9.50
2016,03,19,09,51,9.60
2016,03,19,09,52,9.60
2016,03,19,09,53,9.70
2016,03,19,09,54,9.70
2016,03,19,09,55,9.80
2016,03,19,09,56,9.80
2016,03,19,09,57,9.90
2016,03,19,09,58,9.90
2016,03,19,09,59,9.90
2016,03,19,10,00,9.80
2016,03,19,10,01,9.80
2016,03,19,10,02,9.80
2016,03,19,10,03,9.80
2016,03,19,10,04,9.80
2016,03,19,10,05,9.80
2016,03,19,10,06,9.80
2016,03,19,10,07,9.80
2016,03,19,10,08,9.80
2016,03,19,10,09,9.80
2016,03,19,10,10,9.90
2016,03,19,10,11,9.90
2016,03,19,10,12,9.90
2016,03,19,10,13,9.90
2016,03,19,10,14,9.90
2016,03,19,10,15,9.90
2016,03,19,10,16,9.90
2016,03,19,10,17,9.90
2016,03,19,10,18,9.90
2016,03,19,10,19,9.90
2016,03,19,10,20,9.90
2016,03,19,10,21,10.00
2016,03,19,10,22,10.00
2016,03,19,10,23,10.00
2016,03,19,10,24,10.10
2016,03,19,10,25,10.10
2016,03,19,10,26,10.10
2016,03,19,10,27,10.20
2016,03,19,10,28,10.20
2016,03,19,10,29,10.20
2016,03,19,10,30,10.30
2016,03,19,10,31,10.40
2016,03,19,10,32,10.40
2016,03,19,10,33,10.50
2016,03,19,10,34,10.50
2016,03,19,10,35,10.60
2016,03,19,10,36,10.70
2016,03,19,10,37,10.70
2016,03,19,10,38,10.80
2016,03,19,10,39,10.80
2016,03,19,10,40,10.90
2016,03,19,10,41,10.90
2016,03,19,10,42,10.90
2016,03,19,10,43,10.90
2016,03,19,10,44,10.80
2016,03,19,10,45,10.80
2016,03,19,10,46,10.80
2016,03,19,10,47,10.80
2016,03,19,10,48,10.70
2016,03,19,10,49,10.70
2016,03,19,10,50,10.70
2016,03,19,10,51,10.70
2016,03,19,10,52,10.70
2016,03,19,10,53,10.70
2016,03,19,10,54,10.80
2016,03,19,10,55,10.80
2016,03,19,10,56,10.80
2016,03,19,10,57,10.80
2016,03,19,10,58,10.80
2016,03,19,10,59,10.80
2016,03,19,11,00,10.80
2016,03,19,11,01,10.80
2016,03,19,11,02,10.80
2016,03,19,11,03,10.80
2016,03,19,11,04,10.80
2016,03,19,11,05,10.80
2016,03,19,11,06,10.80
2016,03,19,11,07,10.80
2016,03,19,11,08,10.80
2016,03,19,11,09,10.80
2016,03,19,11,10,10.80
2016,03,19,11,11,10.80
2016,03,19,11,12,10.90
2016,03,19,11,13,10.90
2016,03,19,11,14,10.90
2016,03,19,11,15,10.90
2016,03,19,11,16,10.90
2016,03,19,11,17,10.90
2016,03,19,11,18,10.90
2016,03,19,11,19,10.80
2016,03,19,11,20,10.80
2016,03,19,11,21,10.80
2016,03,19,11,22,10.80
2016,03,19,11,23,10.90
2016,03,19,11,24,10.90
2016,03,19,11,25,10.90
2016,03,19,11,26,10.90
2016,03,19,11,27,10.90
2016,03,19,11,28,10.90
2016,03,19,11,29,10.90
2016,03,19,11,30,11.00
2016,03,19,11,31,11.00
2016,03,19,11,32,11.00
2016,03,19,11,33,11.00
2016,03,19,11,34,11.00
2016,03,19,11,35,10.90
2016,03,19,11,36,10.90
2016,03,19,11,37,10.90
2016,03,19,11,38,10.90
2016,03,19,11,39,11.00
2016,03,19,11,40,11.00
2016,03,19,11,41,11.10
2016,03,19,11,42,11.20
2016,03,19,11,43,11.20
2016,03,19,11,44,11.20
2016,03,19,11,45,11.30
2016,03,19,11,46,11.40
2016,03,19,11,47,11.40
2016,03,19,11,48,11.40
2016,03,19,11,49,11.40
2016,03,19,11,50,11.40
2016,03,19,11,51,11.30
2016,03,19,11,52,11.30
2016,03,19,11,53,11.30
2016,03,19,11,54,11.30
2016,03,19,11,55,11.40
2016,03,19,11,56,11.50
2016,03,19,11,57,11.60
2016,03,19,11,58,11.60
2016,03,19,11,59,11.70
2016,03,19,12,00,11.70
2016,03,19,12,01,11.80
2016,03,19,12,02,11.80
2016,03,19,12,03,11.70
2016,03,19,12,04,11.70
2016,03,19,12,05,11.70
2016,03,19,12,06,11.70
2016,03,19,12,07,11.60
2016,03,19,12,08,11.60
2016,03,19,12,09,11.50
2016,03,19,12,10,11.40
2016,03,19,12,11,11.30
2016,03,19,12,12,11.30
2016,03,19,12,13,11.20
2016,03,19,12,14,11.20
2016,03,19,12,15,11.20
2016,03,19,12,16,11.20
2016,03,19,12,17,11.30
2016,03,19,12,18,11.30
2016,03,19,12,19,11.40
2016,03,19,12,20,11.40
2016,03,19,12,21,11.40
2016,03,19,12,22,11.40
2016,03,19,12,23,11.40
2016,03,19,12,24,11.30
2016,03,19,12,25,11.30
2016,03,19,12,26,11.30
2016,03,19,12,27,11.30
2016,03,19,12,28,11.30
2016,03,19,12,29,11.20
2016,03,19,12,30,11.20
2016,03,19,12,31,11.20
2016,03,19,12,32,11.20
2016,03,19,12,33,11.20
2016,03,19,12,34,11.20
2016,03,19,12,35,11.20
2016,03,19,12,36,11.20
2016,03,19,12,37,11.20
2016,03,19,12,38,11.20
2016,03,19,12,39,11.20
2016,03,19,12,40,11.20
2016,03,19,12,41,11.20
2016,03,19,12,42,11.20
2016,03,19,12,43,11.20
2016,03,19,12,44,11.20
2016,03,19,12,45,11.10
2016,03,19,12,46,11.10
2016,03,19,12,47,11.10
2016,03,19,12,48,11.10
2016,03,19,12,49,11.10
2016,03,19,12,50,11.10
2016,03,19,12,51,11.10
2016,03,19,12,52,11.10
2016,03,19,12,53,11.10
2016,03,19,12,54,11.10
2016,03,19,12,55,11.10
2016,03,19,12,56,11.10
2016,03,19,12,57,11.10
2016,03,19,12,58,11.10
2016,03,19,12,59,11.10
2016,03,19,13,00,11.10
2016,03,19,13,01,11.10
2016,03,19,13,02,11.10
2016,03,19,13,03,11.10
2016,03,19,13,04,11.10
2016,03,19,13,05,11.10
2016,03,19,13,06,11.20
2016,03,19,13,07,11.20
2016,03,19,13,08,11.20
2016,03,19,13,09,11.20
2016,03,19,13,10,11.30
2016,03,19,13,11,11.30
2016,03,19,13,12,11.30
2016,03,19,13,13,11.30
2016,03,19,13,14,11.30
2016,03,19,13,15,11.30
2016,03,19,13,16,11.30
2016,03,19,13,17,11.30
2016,03,19,13,18,11.30
2016,03,19,13,19,11.30
2016,03,19,13,20,11.30
2016,03,19,13,21,11.30
2016,03,19,13,22,11.30
2016,03,19,14,12,11.90
2016,03,19,14,13,11.90
2016,03,19,14,14,11.90
2016,03,19,14,15,12.00
2016,03,19,14,16,12.10
2016,03,19,14,17,12.10
2016,03,19,14,18,12.10
2016,03,19,14,19,12.10
2016,03,19,14,20,12.10
2016,03,19,14,21,12.20
2016,03,19,14,22,12.20
2016,03,19,14,23,12.20
2016,03,19,14,24,12.30
2016,03,19,14,25,12.30
2016,03,19,14,26,12.30
2016,03,19,14,27,12.30
2016,03,19,14,28,12.40
2016,03,19,14,29,12.50
2016,03,19,14,30,12.50
2016,03,19,14,31,12.60
2016,03,19,14,32,12.60
2016,03,19,14,33,12.60
2016,03,19,14,34,12.60
2016,03,19,14,35,12.50
2016,03,19,14,36,12.50
2016,03,19,14,37,12.50
2016,03,19,14,38,12.50
2016,03,19,14,39,12.50
2016,03,19,14,40,12.50
2016,03,19,14,41,12.60
2016,03,19,14,42,12.60
2016,03,19,14,43,12.70
2016,03,19,14,44,12.70
2016,03,19,14,45,12.70
2016,03,19,14,46,12.60
2016,03,19,14,47,12.60
2016,03,19,14,48,12.60
2016,03,19,14,49,12.60
2016,03,19,14,50,12.60
2016,03,19,14,51,12.70
2016,03,19,14,52,12.70
2016,03,19,14,53,12.70
2016,03,19,14,54,12.70
2016,03,19,14,55,12.70
2016,03,19,14,56,12.70
2016,03,19,14,57,12.80
2016,03,19,14,58,12.80
2016,03,19,14,59,12.80
2016,03,19,15,00,12.80
2016,03,19,15,01,12.80
2016,03,19,15,02,12.70
2016,03,19,15,03,12.70
2016,03,19,15,04,12.70
2016,03,19,15,05,12.70
2016,03,19,15,06,12.60
2016,03,19,15,07,12.60
2016,03,19,15,08,12.70
2016,03,19,15,09,12.70
2016,03,19,15,10,12.70
2016,03,19,15,11,12.70
2016,03,19,15,12,12.80
2016,03,19,15,13,12.80
2016,03,19,15,14,12.80
2016,03,19,15,15,12.80
2016,03,19,15,16,12.80
2016,03,19,15,17,12.80
2016,03,19,15,18,12.80
2016,03,19,15,19,12.80
2016,03,19,15,20,12.80
2016,03,19,15,21,12.90
2016,03,19,15,22,12.90
2016,03,19,15,23,12.90
2016,03,19,15,24,12.90
2016,03,19,15,25,12.90
2016,03,19,15,26,12.90
2016,03,19,15,27,12.80
2016,03,19,15,28,12.80
2016,03,19,15,29,12.80
2016,03,19,15,30,12.80
2016,03,19,15,31,12.80
2016,03,19,15,32,12.80
2016,03,19,15,33,12.80
2016,03,19,15,34,12.80
2016,03,19,15,35,12.80
2016,03,19,15,36,12.80
2016,03,19,15,37,12.80
2016,03,19,15,38,12.80
2016,03,19,15,39,12.80
2016,03,19,15,40,12.80
2016,03,19,15,41,12.80
2016,03,19,15,42,12.80
2016,03,19,15,43,12.90
2016,03,19,15,44,12.90
2016,03,19,15,45,12.90
2016,03,19,15,46,12.90
2016,03,19,15,47,12.90
2016,03,19,15,48,12.90
2016,03,19,15,49,12.90
2016,03,19,15,50,12.80
2016,03,19,15,51,12.80
2016,03,19,15,52,12.80
2016,03,19,15,53,12.80
2016,03,19,15,54,12.80
2016,03,19,15,55,12.80
2016,03,19,15,56,12.90
2016,03,19,15,57,12.90
2016,03,19,15,58,12.90
2016,03,19,15,59,12.90
2016,03,19,16,00,12.90
2016,03,19,16,01,12.90
2016,03,19,16,02,12.90
2016,03,19,16,03,12.90
2016,03,19,16,04,12.90
2016,03,19,16,05,12.90
2016,03,19,16,06,12.90
2016,03,19,16,07,12.90
2016,03,19,16,08,12.90
2016,03,19,16,09,12.90
2016,03,19,16,10,13.00
2016,03,19,16,11,13.00
2016,03,19,16,12,13.00
2016,03,19,16,13,13.10
2016,03,19,16,14,13.10
2016,03,19,16,15,13.20
2016,03,19,16,16,13.20
2016,03,19,16,17,13.20
2016,03,19,16,18,13.20
2016,03,19,16,19,13.20
2016,03,19,16,20,13.20
2016,03,19,16,21,13.20
2016,03,19,16,22,13.20
2016,03,19,16,23,13.20
2016,03,19,16,24,13.20
2016,03,19,16,25,13.20
2016,03,19,16,26,13.20
2016,03,19,16,27,13.20
2016,03,19,16,28,13.20
2016,03,19,16,29,13.20
2016,03,19,16,30,13.20
2016,03,19,16,31,13.10
2016,03,19,16,32,13.10
2016,03,19,16,33,13.10
2016,03,19,16,34,13.10
2016,03,19,16,35,13.10
2016,03,19,16,36,13.10
2016,03,19,16,37,13.00
2016,03,19,16,38,13.10
2016,03,19,16,39,13.10
2016,03,19,16,40,13.00
2016,03,19,16,41,13.00
2016,03,19,16,42,13.00
2016,03,19,16,43,13.00
2016,03,19,16,44,13.00
2016,03,19,16,45,13.00
2016,03,19,16,46,12.90
2016,03,19,16,47,12.90
2016,03,19,16,48,12.90
2016,03,19,16,49,12.90
2016,03,19,16,50,12.90
2016,03,19,16,51,12.90
2016,03,19,16,52,12.90
2016,03,19,16,53,12.90
2016,03,19,16,54,12.90
2016,03,19,16,55,12.90
2016,03,19,16,56,12.90
2016,03,19,16,57,12.90
2016,03,19,16,58,12.90
2016,03,19,16,59,12.90
2016,03,19,17,00,12.80
2016,03,19,17,01,12.80
2016,03,19,17,02,12.80
2016,03,19,17,03,12.80
2016,03,19,17,04,12.80
2016,03,19,17,05,12.80
2016,03,19,17,06,12.80
2016,03,19,17,07,12.80
2016,03,19,17,08,12.80
2016,03,19,17,09,12.80
2016,03,19,17,10,12.80
2016,03,19,17,11,12.80
2016,03,19,17,12,12.80
2016,03,19,17,13,12.80
2016,03,19,17,14,12.80
2016,03,19,17,15,12.80
2016,03,19,17,16,12.80
2016,03,19,17,17,12.80
2016,03,19,17,18,12.80
2016,03,19,17,19,12.90
2016,03,19,17,20,12.90
2016,03,19,17,21,12.90
2016,03,19,17,22,12.90
2016,03,19,17,23,12.90
2016,03,19,17,24,13.00
2016,03,19,17,25,12.90
2016,03,19,17,26,12.90
2016,03,19,17,27,13.00
2016,03,19,17,28,13.00
2016,03,19,17,29,13.00
2016,03,19,17,30,13.00
2016,03,19,17,31,13.00
2016,03,19,17,32,13.00
2016,03,19,17,33,13.00
2016,03,19,17,34,13.00
2016,03,19,17,35,13.00
2016,03,19,17,36,13.10
2016,03,19,17,37,13.10
2016,03,19,17,38,13.10
2016,03,19,17,39,13.10
2016,03,19,17,40,13.10
2016,03,19,17,41,13.10
2016,03,19,17,42,13.10
2016,03,19,17,43,13.10
2016,03,19,17,44,13.00
2016,03,19,17,45,13.00
2016,03,19,17,46,13.00
2016,03,19,17,47,13.00
2016,03,19,17,48,13.00
2016,03,19,17,49,13.00
2016,03,19,17,50,13.00
2016,03,19,17,51,13.00
2016,03,19,17,52,13.00
2016,03,19,17,53,13.00
2016,03,19,17,54,13.00
2016,03,19,17,55,13.00
2016,03,19,17,56,13.00
2016,03,19,17,57,13.00
2016,03,19,17,58,13.00
2016,03,19,17,59,13.00
2016,03,19,18,00,13.00
2016,03,19,18,01,13.00
2016,03,19,18,02,13.00
2016,03,19,18,03,13.00
2016,03,19,18,04,13.00
2016,03,19,18,05,12.90
2016,03,19,18,06,12.90
2016,03,19,18,07,12.90
2016,03,19,18,08,12.90
2016,03,19,18,09,12.90
2016,03,19,18,10,12.90
2016,03,19,18,11,12.90
2016,03,19,18,12,12.90
2016,03,19,18,13,12.90
2016,03,19,18,14,12.90
2016,03,19,18,15,12.90
2016,03,19,18,16,12.90
2016,03,19,18,17,12.90
2016,03,19,18,18,12.90
2016,03,19,18,19,12.90
2016,03,19,18,20,12.90
2016,03,19,18,21,12.90
2016,03,19,18,22,12.90
2016,03,19,18,23,12.90
2016,03,19,18,24,12.90
2016,03,19,18,25,12.90
2016,03,19,18,26,12.90
2016,03,19,18,27,12.90
2016,03,19,18,28,12.90
2016,03,19,18,29,12.90
2016,03,19,18,30,12.90
2016,03,19,18,31,12.90
2016,03,19,18,32,12.90
2016,03,19,18,33,12.80
2016,03,19,18,34,12.80
2016,03,19,18,35,12.80
2016,03,19,18,36,12.80
2016,03,19,18,37,12.80
2016,03,19,18,38,12.80
2016,03,19,18,39,12.80
2016,03,19,18,40,12.80
2016,03,19,18,41,12.80
2016,03,19,18,42,12.70
2016,03,19,18,43,12.70
2016,03,19,18,44,12.70
2016,03,19,18,45,12.70
2016,03,19,18,46,12.70
2016,03,19,18,47,12.60
2016,03,19,18,48,12.60
2016,03,19,18,49,12.60
2016,03,19,18,50,12.60
2016,03,19,18,51,12.60
2016,03,19,18,52,12.60
2016,03,19,18,53,12.60
2016,03,19,18,54,12.50
2016,03,19,18,55,12.50
2016,03,19,18,56,12.50
2016,03,19,18,57,12.40
2016,03,19,18,58,12.40
2016,03,19,18,59,12.40
2016,03,19,19,00,12.40
2016,03,19,19,01,12.40
2016,03,19,19,02,12.30
2016,03,19,19,03,12.30
2016,03,19,19,04,12.30
2016,03,19,19,05,12.30
2016,03,19,19,06,12.20
2016,03,19,19,07,12.20
2016,03,19,19,08,12.20
2016,03,19,19,09,12.10
2016,03,19,19,10,12.10
2016,03,19,19,11,12.10
2016,03,19,19,12,12.10
2016,03,19,19,13,12.10
2016,03,19,19,14,12.10
2016,03,19,19,15,12.10
2016,03,19,19,16,12.10
2016,03,19,19,17,12.10
2016,03,19,19,18,12.10
2016,03,19,19,19,12.10
2016,03,19,19,20,12.10
2016,03,19,19,21,12.10
2016,03,19,19,22,12.10
2016,03,19,19,23,12.10
2016,03,19,19,24,12.10
2016,03,19,19,25,12.00
2016,03,19,19,26,12.00
2016,03,19,19,27,12.00
2016,03,19,19,28,11.90
2016,03,19,19,29,11.90
2016,03,19,19,30,11.90
2016,03,19,19,31,11.90
2016,03,19,19,32,11.80
2016,03,19,19,33,11.80
2016,03,19,19,34,11.80
2016,03,19,19,35,11.80
2016,03,19,19,36,11.70
2016,03,19,19,37,11.70
2016,03,19,19,38,11.70
2016,03,19,19,39,11.70
2016,03,19,19,40,11.70
2016,03,19,19,41,11.70
2016,03,19,19,42,11.70
2016,03,19,19,43,11.70
2016,03,19,19,44,11.70
2016,03,19,19,45,11.70
2016,03,19,19,46,11.70
2016,03,19,19,47,11.70
2016,03,19,19,48,11.70
2016,03,19,19,49,11.70
2016,03,19,19,50,11.70
2016,03,19,19,51,11.70
2016,03,19,19,52,11.70
2016,03,19,19,53,11.70
2016,03,19,19,54,11.60
2016,03,19,19,55,11.60
2016,03,19,19,56,11.60
2016,03,19,19,57,11.60
2016,03,19,19,58,11.60
2016,03,19,19,59,11.60
2016,03,19,20,00,11.60
2016,03,19,20,01,11.60
2016,03,19,20,02,11.50
2016,03,19,20,03,11.50
2016,03,19,20,04,11.50
2016,03,19,20,05,11.50
2016,03,19,20,06,11.50
2016,03,19,20,07,11.50
2016,03,19,20,08,11.50
2016,03,19,20,09,11.50
2016,03,19,20,10,11.50
2016,03,19,20,11,11.50
2016,03,19,20,12,11.50
2016,03,19,20,13,11.50
2016,03,19,20,14,11.50
2016,03,19,20,15,11.50
2016,03,19,20,16,11.50
2016,03,19,20,17,11.50
2016,03,19,20,18,11.50
2016,03,19,20,19,11.50
2016,03,19,20,20,11.40
2016,03,19,20,21,11.40
2016,03,19,20,22,11.40
2016,03,19,20,23,11.40
2016,03,19,20,24,11.40
2016,03,19,20,25,11.40
2016,03,19,20,26,11.40
2016,03,19,20,27,11.40
2016,03,19,20,28,11.40